K4BHH Weather Reports


time (UTC)temp
C
wind
direction
speed
KPH
gust
KPH
rain 1hr
cm
rain 24hr
cm
rain mn
cm
humidity
%
barometer
mb
20260906065454 25 26 14.5 30.6 0.00 0.00 0.00 80 1013.9
20260906064453 25 23 14.5 30.6 0.00 0.00 0.00 81 1013.5
20260906063453 25 8 6.4 9.7 0.00 0.00 0.00 83 1012.9
20260906062421 25 50 1.6 14.5 0.00 0.00 0.00 83 1012.5
20260906061420 25 44 6.4 22.5 0.00 0.00 0.00 83 1012.5
20260906060348 25 50 9.7 22.5 0.00 0.00 0.00 83 1012.2
20260906055347 25 47 12.9 22.5 0.00 0.00 0.00 84 1012.5
20260906054346 25 32 9.7 22.5 0.00 0.00 0.00 84 1012.5
20260906053345 23 48 11.3 22.5 0.00 0.00 0.00 88 1012.5
20260906052242 23 78 3.2 6.4 0.00 0.00 0.00 92 1011.9
20260906051241 23 168 0.0 0.0 0.00 0.00 0.00 92 1011.5
20260906050240 23 138 0.0 0.0 0.00 0.00 0.00 91 1011.5
20260906045208 23 139 0.0 0.0 0.00 0.00 0.00 91 1011.5
20260906044207 23 139 0.0 0.0 0.00 0.00 0.00 90 1011.9
20260906043206 23 139 0.0 0.0 0.00 0.00 0.00 90 1011.9
20260906042205 23 138 0.0 0.0 0.00 0.00 0.00 91 1012.2
20260906041102 23 139 0.0 0.0 0.00 0.00 0.00 90 1012.2
20260906040101 23 139 0.0 0.0 0.00 0.00 0.00 90 1012.2
20260906035100 23 139 0.0 0.0 0.00 0.00 0.00 90 1012.2
20260906034059 23 139 0.0 0.0 0.00 0.00 0.00 90 1012.2
20260906033027 23 138 0.0 0.0 0.00 0.00 0.00 89 1012.2
20260906032026 23 138 0.0 0.0 0.00 0.00 0.00 89 1012.2
20260906031025 23 139 0.0 0.0 0.00 0.00 0.00 89 1011.9
20260906030024 23 139 0.0 0.0 0.00 0.00 0.00 88 1011.9
20260906025024 23 139 0.0 0.0 0.00 0.00 0.00 88 1011.9
20260906024023 23 139 0.0 1.6 0.00 0.00 0.00 87 1011.9
20260906023022 24 139 0.0 1.6 0.00 0.00 0.00 87 1011.5
20260906021950 24 139 0.0 1.6 0.00 0.00 0.00 86 1011.5
20260906020949 24 139 0.0 1.6 0.00 0.00 0.00 86 1011.5
20260906015948 25 69 0.0 4.8 0.00 0.00 0.00 84 1011.2
20260906014916 25 69 0.0 6.4 0.00 0.00 0.00 83 1011.2
20260906013915 25 49 3.2 6.4 0.00 0.00 0.00 83 1011.2
20260906012914 25 39 3.2 4.8 0.00 0.00 0.00 82 1010.8
20260906011913 25 213 1.6 3.2 0.00 0.00 0.00 81 1010.8
20260906010908 25 214 0.0 0.0 0.00 0.00 0.00 80 1010.8
20260906005906 26 214 0.0 0.0 0.00 0.00 0.00 78 1010.8
20260906004906 26 214 0.0 4.8 0.00 0.00 0.00 78 1010.5
20260906003905 27 209 1.6 4.8 0.00 0.00 0.00 75 1010.8
20260906002904 27 347 0.0 1.6 0.00 0.00 0.00 70 1010.5
20260906001903 27 126 0.0 1.6 0.00 0.00 0.00 69 1010.5
20260906000902 28 134 0.0 3.2 0.00 0.00 0.00 68 1010.5
20260905235901 28 130 1.6 4.8 0.00 0.00 0.00 66 1010.5
20260905234900 28 178 0.0 12.9 0.00 0.00 0.00 64 1010.8
20260905233859 29 102 4.8 16.1 0.00 0.00 0.00 63 1010.8
20260905232827 30 108 4.8 20.9 0.00 0.00 0.00 61 1011.2
20260905231826 31 153 3.2 20.9 0.00 0.00 0.00 55 1011.5
20260905230825 30 65 6.4 25.7 0.00 0.00 0.00 66 1011.2
20260905225824 31 29 12.9 25.7 0.00 0.00 0.00 58 1010.8
20260905224823 33 19 16.1 25.7 0.00 0.00 0.00 55 1010.5
20260905223822 35 17 1.6 4.8 0.00 0.00 0.00 52 1010.2
20260905222751 35 339 1.6 3.2 0.00 0.00 0.00 52 1010.2
20260905221750 33 8 0.0 3.2 0.00 0.00 0.00 55 1010.2
20260905220718 34 13 1.6 4.8 0.00 0.00 0.00 53 1010.2
20260905215717 35 47 1.6 9.7 0.00 0.00 0.00 48 1010.2
20260905214716 35 25 4.8 11.3 0.00 0.00 0.00 47 1010.2
20260905213715 36 27 4.8 11.3 0.00 0.00 0.00 46 1010.2
20260905212715 36 56 1.6 9.7 0.00 0.00 0.00 48 1010.2
20260905211714 36 42 6.4 9.7 0.00 0.00 0.00 47 1010.2
20260905210642 36 26 3.2 6.4 0.00 0.00 0.00 45 1010.2
20260905205641 36 23 3.2 14.5 0.00 0.00 0.00 45 1010.2
20260905204640 36 36 4.8 14.5 0.00 0.00 0.00 45 1010.5
20260905203639 36 37 8.0 12.9 0.00 0.00 0.00 46 1010.5
20260905202638 36 47 3.2 12.9 0.00 0.00 0.00 49 1010.5
20260905201637 36 26 6.4 9.7 0.00 0.00 0.00 48 1010.8
20260905200636 36 349 4.8 16.1 0.00 0.03 0.00 48 1010.8
20260905195635 36 40 8.0 16.1 0.00 0.03 0.00 47 1011.2
20260905194634 36 22 3.2 11.3 0.00 0.03 0.00 48 1011.2
20260905193602 36 47 3.2 12.9 0.00 0.03 0.00 49 1011.5
20260905192601 35 57 4.8 14.5 0.00 0.03 0.00 49 1011.5
20260905191600 36 50 9.7 14.5 0.00 0.03 0.00 48 1011.5
20260905190559 35 5 3.2 12.9 0.00 0.03 0.00 51 1011.9
20260905185559 35 42 6.4 16.1 0.00 0.03 0.00 48 1012.2
20260905184558 35 20 6.4 16.1 0.00 0.03 0.00 49 1012.2
20260905183525 35 40 6.4 14.5 0.00 0.03 0.00 48 1012.2
20260905182525 35 62 6.4 11.3 0.00 0.03 0.00 51 1012.2
20260905181524 35 54 6.4 11.3 0.00 0.03 0.00 50 1012.5
20260905180523 35 353 4.8 11.3 0.00 0.03 0.00 53 1012.5
20260905175522 35 98 3.2 11.3 0.00 0.03 0.00 57 1012.5
20260905174450 35 27 6.4 11.3 0.00 0.03 0.00 56 1012.5
20260905173449 35 251 3.2 9.7 0.00 0.03 0.00 57 1012.9
20260905172449 34 6 3.2 16.1 0.00 0.03 0.00 56 1012.9
20260905171447 34 6 9.7 16.1 0.00 0.03 0.00 59 1012.9
20260905170415 34 261 1.6 8.0 0.00 0.03 0.00 59 1012.9
20260905165414 33 20 3.2 9.7 0.00 0.03 0.00 61 1013.2
20260905164413 33 352 1.6 9.7 0.00 0.03 0.00 61 1013.2
20260905163412 33 288 3.2 9.7 0.00 0.03 0.00 62 1013.5
20260905162412 32 258 3.2 8.0 0.00 0.03 0.00 67 1013.9
20260905161340 32 291 1.6 8.0 0.00 0.03 0.00 66 1013.9
20260905160339 32 290 1.6 8.0 0.00 0.03 0.00 64 1013.9
20260905155338 32 334 1.6 6.4 0.00 0.03 0.00 65 1013.9
20260905154337 31 59 1.6 6.4 0.00 0.03 0.00 68 1013.9
20260905153305 31 270 3.2 6.4 0.00 0.03 0.00 70 1013.9
20260905152306 31 268 3.2 8.0 0.00 0.03 0.00 71 1014.2
20260905151303 31 225 3.2 8.0 0.00 0.03 0.00 72 1013.9
20260905150302 30 182 3.2 6.4 0.00 0.03 0.00 73 1013.9
20260905145301 30 189 3.2 6.4 0.00 0.03 0.00 74 1014.2
20260905144300 29 186 1.6 4.8 0.00 0.03 0.00 75 1014.2
20260905143300 29 184 0.0 4.8 0.00 0.03 0.00 77 1014.2
20260905142156 28 273 1.6 4.8 0.00 0.03 0.00 79 1014.6
20260905141155 28 191 1.6 6.4 0.00 0.03 0.00 79 1014.6
20260905140154 27 193 3.2 6.4 0.00 0.03 0.00 82 1014.6
20260905135122 27 192 3.2 4.8 0.00 0.03 0.00 83 1014.6
20260905134122 27 189 3.2 4.8 0.00 0.03 0.00 84 1014.6
20260905133121 27 200 1.6 1.6 0.00 0.03 0.00 85 1014.6
20260905132120 26 215 1.6 1.6 0.00 0.03 0.00 86 1014.6
20260905131119 25 254 1.6 6.4 0.00 0.03 0.00 91 1014.9
20260905130047 24 198 1.6 8.0 0.00 0.03 0.00 93 1014.9
20260905125046 23 190 4.8 8.0 0.00 0.03 0.00 94 1014.6
20260905124045 23 325 1.6 3.2 0.00 0.03 0.00 94 1014.6
20260905123044 23 8 0.0 0.0 0.00 0.03 0.00 95 1014.6
20260905122043 23 8 0.0 0.0 0.00 0.03 0.00 95 1014.2
20260905121042 22 8 0.0 0.0 0.00 0.03 0.00 96 1014.2
20260905120010 21 8 0.0 0.0 0.00 0.03 0.00 96 1014.2
20260905115009 21 8 0.0 0.0 0.00 0.03 0.00 96 1014.2
20260905114008 21 8 0.0 0.0 0.00 0.03 0.00 95 1014.2
20260905113007 21 8 0.0 0.0 0.00 0.03 0.00 96 1013.9
20260905111935 21 8 0.0 0.0 0.00 0.03 0.00 95 1013.9
20260905110934 21 8 0.0 0.0 0.00 0.03 0.00 95 1013.5
20260905105902 21 8 0.0 0.0 0.00 0.03 0.00 95 1013.9
20260905104901 21 8 0.0 0.0 0.00 0.03 0.00 95 1013.5
20260905103900 21 8 0.0 0.0 0.00 0.03 0.00 95 1013.5
20260905102827 21 8 0.0 0.0 0.00 0.03 0.00 95 1013.5
20260905101826 21 8 0.0 0.0 0.00 0.03 0.00 95 1013.2
20260905100826 21 8 0.0 0.0 0.00 0.03 0.00 95 1013.2
20260905095825 21 8 0.0 0.0 0.00 0.03 0.00 95 1013.2
20260905094753 21 8 0.0 0.0 0.00 0.03 0.00 95 1013.2
20260905093752 21 8 0.0 0.0 0.00 0.03 0.00 95 1013.2
20260905092751 21 8 0.0 0.0 0.00 0.03 0.00 95 1013.2
20260905091718 22 8 0.0 0.0 0.00 0.03 0.00 95 1013.2
20260905090718 22 8 0.0 0.0 0.00 0.03 0.00 95 1013.2
20260905085717 22 8 0.0 0.0 0.00 0.03 0.00 95 1013.2
20260905084716 22 8 0.0 0.0 0.00 0.03 0.00 95 1013.2
20260905083715 22 8 0.0 0.0 0.00 0.03 0.00 95 1013.2
20260905082714 22 8 0.0 0.0 0.00 0.03 0.00 95 1013.2
20260905081713 22 8 0.0 0.0 0.00 0.03 0.00 95 1013.2
20260905080609 22 8 0.0 0.0 0.00 0.03 0.00 95 1012.9
20260905075608 22 8 0.0 0.0 0.00 0.03 0.00 95 1012.9
20260905074608 22 8 0.0 0.0 0.00 0.03 0.00 95 1012.9
20260905073536 22 8 0.0 0.0 0.00 0.03 0.00 95 1012.9
20260905072535 22 8 0.0 0.0 0.00 0.03 0.00 95 1012.9
20260905071534 22 11 0.0 0.0 0.00 0.03 0.00 95 1012.9
20260905070533 22 11 0.0 0.0 0.00 0.03 0.00 94 1012.9